Kendall, FL

7:08 AM EST on December 17, 2017 (GMT -0500)
Kendall-Tamiami Executive

Weather History for KTMB - December, 2012

Change the Weather History Date:

Sunday, December 2, 2012

  Actual Average Record
Temperature  
Mean Temperature 72 °F -  
Max Temperature 80 °F 78 °F 84 °F (1996)
Min Temperature 64 °F 60 °F 43 °F (2005)
Cooling Degree Days 7    
Growing Degree Days 22 (Base 50)    
Moisture  
Dew Point 64 °F    
Average Humidity 77    
Maximum Humidity 93    
Minimum Humidity 57    
Precipitation  
Precipitation 0.06 in - - ()
Sea Level Pressure  
Sea Level Pressure 30.17 in    
Wind  
Wind Speed 8 mph (East)    
Max Wind Speed 20 mph    
Max Gust Speed 26 mph    
Visibility 10 miles    
Events Rain    
Averages and records for this station are not official NWS values.
T = Trace of Precipitation, MM = Missing Value Source: NWS Daily Summary

Daily Weather History Graph

Daily Weather History Graph

Search for Another Location

Airport or City:

Trip Planner

Search our weather history database for the weather conditions in past years. The results will help you decide how hot, cold, wet, or windy it might be!

Date:

Astronomy

Dec. 02, 2012 Rise Set
Actual Time 6:52 AM EST 5:30 PM EST
Civil Twilight 6:27 AM EST 5:55 PM EST
Nautical Twilight 5:58 AM EST 6:23 PM EST
Astronomical Twilight 5:30 AM EST 6:51 PM EST
Moon 9:06 PM EST (12/2) 9:48 AM EST (12/2)
Length of Visible Light 11h 28m
Length of Day
10h 38m
Waning Gibbous, 86% of the Moon is Illuminated
Dec 2
Waning Gibbous
Dec 6
Last Quarter
Dec 13
New
Dec 20
First Quarter
Dec 28
Full

Hourly Weather History & Observations

Time (EST) Temp. Heat Index Dew Point Humidity Pressure Visibility Wind Dir Wind Speed Gust Speed Precip Events Conditions
12:53 AM 70.0 °F - 64.0 °F 81% 30.17 in 10.0 mi East 6.9 mph - N/A   Scattered Clouds
1:53 AM 68.0 °F - 63.0 °F 84% 30.16 in 10.0 mi ENE 5.8 mph - N/A   Clear
2:53 AM 66.0 °F - 62.1 °F 87% 30.14 in 10.0 mi East 5.8 mph - N/A   Clear
3:53 AM 64.9 °F - 62.1 °F 90% 30.15 in 10.0 mi Calm Calm - N/A   Partly Cloudy
4:53 AM 64.9 °F - 62.1 °F 90% 30.15 in 10.0 mi Calm Calm - N/A   Partly Cloudy
5:53 AM 66.9 °F - 64.9 °F 93% 30.16 in 10.0 mi NE 3.5 mph - 0.01 in   Mostly Cloudy
6:53 AM 69.1 °F - 64.9 °F 87% 30.17 in 10.0 mi NE 6.9 mph - N/A   Mostly Cloudy
7:53 AM 71.1 °F - 66.0 °F 84% 30.19 in 10.0 mi NNE 6.9 mph - 0.00 in   Overcast
8:53 AM 71.1 °F - 66.9 °F 87% 30.21 in 5.0 mi East 5.8 mph - 0.03 in Rain Light Rain
9:53 AM 77.0 °F - 68.0 °F 74% 30.22 in 10.0 mi NE 11.5 mph - 0.00 in   Mostly Cloudy
10:53 AM 77.0 °F - 66.0 °F 69% 30.22 in 10.0 mi ENE 16.1 mph - N/A   Overcast
11:53 AM 80.1 °F 81.7 °F 64.0 °F 58% 30.19 in 10.0 mi East 19.6 mph 25.3 mph N/A   Mostly Cloudy
12:53 PM 75.9 °F - 64.9 °F 69% 30.17 in 10.0 mi East 13.8 mph - 0.02 in   Mostly Cloudy
1:53 PM 79.0 °F - 64.9 °F 62% 30.15 in 10.0 mi East 16.1 mph 26.5 mph N/A   Partly Cloudy
2:53 PM 79.0 °F - 64.0 °F 60% 30.14 in 10.0 mi East 19.6 mph - N/A   Partly Cloudy
3:53 PM 78.8 °F - 62.6 °F 57% 30.14 in 10.0 mi East 18.4 mph - N/A   Scattered Clouds
4:53 PM 75.9 °F - 64.0 °F 67% 30.15 in 10.0 mi East 13.8 mph - N/A   Mostly Cloudy
5:53 PM 73.9 °F - 63.0 °F 68% 30.15 in 10.0 mi East 11.5 mph - N/A   Overcast
6:53 PM 71.1 °F - 64.0 °F 78% 30.17 in 10.0 mi East 8.1 mph - N/A   Clear
7:53 PM 70.0 °F - 63.0 °F 78% 30.18 in 10.0 mi East 9.2 mph - N/A   Clear
8:53 PM 70.0 °F - 63.0 °F 78% 30.19 in 10.0 mi East 8.1 mph - N/A   Partly Cloudy
9:53 PM 69.1 °F - 62.1 °F 78% 30.19 in 10.0 mi East 8.1 mph - N/A   Clear
10:53 PM 68.0 °F - 62.1 °F 81% 30.20 in 10.0 mi East 6.9 mph - N/A   Clear
11:53 PM 69.1 °F - 63.0 °F 81% 30.19 in 10.0 mi East 8.1 mph - N/A   Partly Cloudy